HST,Max TemperatureF,Mean TemperatureF,Min TemperatureF,Max Dew PointF,MeanDew PointF,Min DewpointF,Max Humidity, Mean Humidity, Min Humidity, Max Sea Level PressureIn, Mean Sea Level PressureIn, Min Sea Level PressureIn, Max VisibilityMiles, Mean VisibilityMiles, Min VisibilityMiles, Max Wind SpeedMPH, Mean Wind SpeedMPH, Max Gust SpeedMPH,PrecipitationIn, CloudCover, Events, WindDirDegrees
2014-2-1,84,78,71,71,67,63,82,71,56,29.91,29.86,29.83,10,10,10,22,8,26,0.00,0,,146
2014-2-2,79,76,73,72,68,62,94,76,68,29.97,29.91,29.86,10,10,8,16,10,,0.03,7,Rain,303
2014-2-3,81,74,68,72,67,61,90,76,67,30.06,29.97,29.88,10,8,0,30,7,37,1.19,6,Fog-Rain,287
2014-2-4,82,76,70,69,65,60,85,70,56,30.01,29.91,29.85,10,10,6,17,9,,0.01,4,Rain,281
2014-2-5,81,76,70,70,67,62,87,73,62,29.95,29.90,29.83,10,10,10,15,7,,0.00,1,,29
2014-2-6,79,76,73,72,69,66,83,79,68,30.02,29.95,29.89,10,10,9,18,6,,0.00,3,,168
2014-2-7,81,77,73,72,70,67,85,78,69,29.96,29.91,29.83,10,10,9,12,5,,0.00,4,,249
2014-2-8,82,77,72,70,69,66,84,76,67,29.96,29.91,29.87,10,10,10,10,4,,0.00,2,,206
2014-2-9,82,77,72,69,67,64,84,71,58,29.96,29.91,29.84,10,10,10,12,6,,0.00,3,,41
2014-2-10,82,78,72,69,67,64,79,70,60,30.02,29.97,29.91,10,10,10,12,6,,0.00,1,,155
2014-2-11,82,76,70,70,67,62,79,72,65,30.03,29.98,29.92,10,10,8,10,5,,0.00,1,,187
2014-2-12,82,76,71,69,66,63,81,68,53,29.99,29.94,29.87,10,10,8,9,6,,0.00,2,,180
2014-2-13,84,78,71,69,64,61,79,63,46,29.97,29.93,29.87,10,10,10,15,7,,0.00,2,,70
2014-2-14,81,76,71,69,66,61,78,68,56,29.98,29.94,29.89,10,10,10,13,5,,0.00,2,,104
2014-2-15,82,78,73,70,67,63,76,68,62,29.97,29.93,29.86,10,10,10,13,7,,0.00,1,,177
2014-2-16,81,78,75,71,69,66,87,75,67,29.98,29.92,29.88,10,10,9,13,6,,0.00,3,Rain,155
2014-2-17,82,78,73,71,68,62,85,74,58,29.95,29.89,29.78,10,10,10,26,10,30,0.00,4,Rain,148
2014-2-18,82,77,72,72,68,65,87,75,62,29.96,29.90,29.83,10,10,2,20,13,26,0.13,5,Rain,4
2014-2-19,84,78,73,71,68,65,81,73,63,30.00,29.95,29.90,10,10,10,14,8,,0.00,1,,177
2014-2-20,82,76,70,70,68,64,81,72,64,29.95,29.91,29.85,10,10,10,12,6,,0.00,2,,299
2014-2-21,82,78,73,70,69,66,83,74,65,29.96,29.91,29.86,10,10,10,12,7,,0.00,2,,278
2014-2-22,84,78,73,70,67,64,79,70,56,29.98,29.94,29.90,10,10,10,12,5,,0.00,1,,52
2014-2-23,84,78,71,70,66,63,78,69,58,29.99,29.95,29.92,10,10,10,13,7,,0.00,0,,347
2014-2-24,84,76,69,67,64,60,76,65,55,29.98,29.92,29.86,10,10,10,18,6,18,0.00,1,,41
2014-2-25,81,74,66,65,61,52,76,64,50,30.04,29.91,29.86,10,10,10,14,6,,0.00,1,,5
2014-2-26,81,74,66,62,58,55,73,57,45,30.01,29.95,29.91,10,10,10,16,8,21,0.00,0,,13
2014-2-27,82,74,66,62,60,56,76,59,45,30.00,29.95,29.91,10,10,10,10,5,,0.00,0,,182
2014-2-28,82,76,69,66,63,60,75,62,53,29.98,29.93,29.88,10,10,10,14,7,,0.00,2,,169